Simultaneous Nadir Overpasses (SNOs) Predictions

Prediction of SNOs between METOP-C and LANDSAT-8 Satellite Orbit:

Table of predicted SNOs for the next 14.0 days since TLE Epoch: 6/22/2024
Index Date (METOP-C) Time (METOP-C) Lat,Lon (METOP-C) SZA (METOP-C ) Date (LANDSAT-8) Time (LANDSAT-8) Lat,Lon (LANDSAT-8) SZA (LANDSAT-8 ) Distance(km) Time Diff (sec)
1 06/22/2024 13:03:24 -81.07,-157.05 120.35 06/22/2024 13:04:25 -81.07,-157.01 120.32 0.76 61
2 06/22/2024 13:54:02 81.10, 11.21 59.78 06/22/2024 13:53:50 81.10, 11.09 59.75 2.14 12
3 06/25/2024 08:37:49 -81.07, -90.70 120.31 06/25/2024 08:38:42 -81.07, -90.58 120.28 2.22 53
4 06/25/2024 09:28:27 81.10, 77.49 59.81 06/25/2024 09:28:07 81.10, 77.50 59.79 0.46 20
5 06/28/2024 04:12:12 -81.08, -24.07 120.18 06/28/2024 04:12:57 -81.08, -23.98 120.15 1.58 45
6 06/28/2024 05:02:50 81.10, 144.06 59.93 06/28/2024 05:02:22 81.10, 144.07 59.91 0.22 28
7 06/30/2024 23:46:35 -81.09, 42.85 119.96 06/30/2024 23:47:12 -81.10, 42.78 119.95 1.28 37
8 07/01/2024 00:37:14 81.11,-149.44 60.09 07/01/2024 00:36:38 81.10,-149.55 60.06 2.04 36
9 07/03/2024 19:21:00 -81.08, 108.94 119.80 07/03/2024 19:21:28 -81.08, 108.98 119.78 0.63 28



Historial Predications of SNOs between METOP-C and LANDSAT-8
